Terminal Aerodrome Forecast
Issued by NWS Sterling, VA

Current Version | Previous Version | Graphics & Text | Print | Product List | Glossary On
Versions: 1 2 3 4 5 6 7 8 9 10 11 12 13 14 15 16 17 18 19 20 21 22 23 24 25 26
000
FTUS41 KLWX 081700
TAFDCA
TAF
KDCA 081738Z 0818/0918 20012G22KT P6SM SCT050 BKN130
     FM090000 22010KT 6SM -SHRA VCTS OVC050CB
     FM090200 24008KT P6SM VCTS BKN050CB
     FM090500 24005KT P6SM SCT050 BKN130
     FM091500 20010KT P6SM BKN050=

USA.gov is the U.S. government's official web portal to all federal, state and local government web resources and services.